Regional Weather Roundup
Issued by NWS

Home | Current Version | Previous Version | Text Only | Print | Product List | Glossary Off
Versions: 1 2 3 4 5 6 7 8 9 10 11 12 13 14 15 16 17 18 19 20 21 22 23 24 25 26 27 28 29 30 31 32 33 34 35 36 37 38 39 40 41 42 43 44 45 46 47 48 49 50

000
ASUS43 KOAX 021610
RWRNE

WEATHER ROUNDUP FOR NEBRASKA
NATIONAL WEATHER SERVICE OMAHA NE
1100 AM CDT THU JUL 02 2015

NOTES: SATELLITE DATA IS BEING USED TO AUGMENT CLOUD COVER ABOVE
       12000 FEET.
       "FAIR" INDICATES FEW OR NO CLOUDS BELOW 12,000 FEET WITH NO
       SIGNIFICANT WEATHER AND/OR OBSTRUCTIONS TO VISIBILITY.

  * THESE STATIONS DO NOT REPORT WEATHER SUCH AS RAIN...SNOW OR FOG.

NEZ001>004-019>022-054>056-021700-
NEBRASKA PANHANDLE

CITY           SKY/WX    TMP DP  RH WIND       PRES   REMARKS
SCOTTSBLUFF    SUNNY     73  61  65 NW14      30.13F
ALLIANCE       SUNNY     73  58  59 N18       30.12R
CHADRON        SUNNY     74  60  61 NW13G21   30.10F
SIDNEY         SUNNY     71  59  65 NW18G25   30.16R
$$

NEZ057>060-069>072-079>082-021700-
SOUTHWEST NEBRASKA

CITY           SKY/WX    TMP DP  RH WIND       PRES   REMARKS
NORTH PLATTE   SUNNY     79  61  53 NW14      30.02S
IMPERIAL       MOSUNNY   76  60  57 W9        30.07R
MCCOOK         PTSUNNY   76  59  55 W8        30.00S
$$

NEZ005>010-023>029-035>040-094-021700-
NORTH CENTRAL NEBRASKA

CITY           SKY/WX    TMP DP  RH WIND       PRES   REMARKS
VALENTINE      PTSUNNY   70  63  78 N17G26    30.03R
BROKEN BOW     SUNNY     77  61  57 N15       29.99S
ORD              N/A     77  62  59 NW16G23   29.94F
$$

NEZ041-046>049-061>064-073>077-083>087-021700-
SOUTH CENTRAL NEBRASKA

CITY           SKY/WX    TMP DP  RH WIND       PRES   REMARKS
GRAND ISLAND   PTSUNNY   78  68  71 N7        29.96R
HASTINGS       PTSUNNY   75  69  81 VRB5      29.95R
KEARNEY *      PTSUNNY   75  64  69 NW15      29.96R
$$

NEZ011>018-030>034-042>045-021700-
NORTHEAST NEBRASKA

CITY           SKY/WX    TMP DP  RH WIND       PRES   REMARKS
NORFOLK        RAIN      63  61  93 E7        29.96S FOG
COLUMBUS *     CLOUDY    64  57  77 E7        29.95R
TEKAMAH        CLOUDY    66  59  78 E5        29.96F
$$

NEZ050>053-065>068-078-088>093-021700-
SOUTHEAST NEBRASKA

CITY           SKY/WX    TMP DP  RH WIND       PRES   REMARKS
LINCOLN        RAIN      67  64  90 E6        29.96S FOG
OMAHA EPPLEY   LGT RAIN  65  62  90 E6        29.96F FOG
FALLS CITY     CLOUDY    70  66  87 NE6       29.94R
$$

NEZ044-045-051>053-067-021700-
OMAHA AREA

CITY           SKY/WX    TMP DP  RH WIND       PRES   REMARKS
OMAHA EPPLEY   LGT RAIN  65  62  90 E6        29.96F FOG
MILLARD        LGT RAIN  66  63  88 S3        29.96
OFFUTT AFB     LGT RAIN  66  63  88 E6        29.95F
$$



USA.gov is the U.S. government's official web portal to all federal, state and local government web resources and services.